Location: Newark
(50.4348°N, 30.5552°E)
Time: 01:46:27
(UTC+00:00)

Tiros 1 despin weight - Pass Details

Date: 27 January 2020
Orbit: 594 x 642 km, 48.2° (Epoch: 25 February)

Event Time Altitude Azimuth Distance (km) Brightness Sun altitude
Rises 11:56:14 0° 271° (W) 2,885 ? 17.2°
Reaches altitude 10° 11:58:33 10° 269° (W) 1,987 ? 17.0°
Maximum altitude 12:03:04 63° 188° (S) 700 ? 16.7°
Drops below altitude 10° 12:07:39 10° 108° (ESE) 2,013 ? 16.4°
Sets 12:10:00 0° 105° (ESE) 2,927 ? 16.2°
